Location: Unspecified
(0.0000°N, 0.0000°E)
Time: 07:55:47
(UTC+02:00)

Orbus 21S - Visible Passes

Search period start: 31 May 2016 00:00
Search period end: 10 June 2016 00:00
Orbit: 306 x 33115 km, 24.1° (Epoch: 29 May)

Date Brightness Start Highest point End Pass type
(mag) Time Alt. Az. Time Alt. Az. Time Alt. Az.
31 May 6.2 06:01:02 12° WNW 06:11:01 18° NW 06:15:59 10° N visible
31 May 7.3 16:24:05 10° W 01:24:47 31° ENE 01:29:51 10° ENE visible
01 Jun 10.8 23:13:22 10° WSW 23:55:35 12° WSW 00:50:18 10° WSW visible
02 Jun 7.0 16:56:25 10° W 21:21:06 62° SSW 02:01:24 10° ENE visible
03 Jun 5.9 15:38:32 10° ESE 19:20:14 26° ESE 20:44:51 10° E visible
04 Jun 7.2 17:29:17 10° W 20:22:54 60° SSW 02:32:35 10° ENE visible
05 Jun 5.9 12:36:42 10° NW 19:54:57 36° ESE 21:26:15 10° E visible
06 Jun 6.6 18:02:51 10° WSW 20:23:24 56° SSW 03:03:28 10° NE visible
07 Jun 6.2 13:07:19 10° WNW 20:31:02 45° ESE 22:01:41 13° E visible
08 Jun 7.0 18:37:23 10° WSW 20:48:48 51° SW 03:34:06 10° NE visible
09 Jun 6.5 13:38:04 10° WNW 21:09:08 55° ESE 22:34:59 17° E visible
